This demonstration page uses our WeatherBlox Daily Observations layout. Learn more.

Left ArrowRight Arrow

Hourly Observations for June 27, 2016

Temp ( °F °C ) Dew Point ( °F °C ) Humidity (%) Winds ( mph kmh ) Pressure ( in mb ) Visibility ( mi km ) Precip ( " mm )
12:53 am 00:53 Clear 76 24.4 52 11.1 43 43 N 3 6 29.92 1013 10 16 0.00 0.00
1:53 am 01:53 Clear 71 21.7 54 12.2 55 55 N 3 6 29.92 1013 10 16 0.00 0.00
2:53 am 02:53 Clear 71 21.7 55 12.8 57 57 NNW 3 6 29.93 1014 10 16 0.00 0.00
3:53 am 03:53 Clear 69 20.6 56 13.3 63 63 Calm 29.94 1014 10 16 0.00 0.00
4:53 am 04:53 Clear 67 19.4 56 13.3 68 68 Calm 29.95 1014 10 16 0.00 0.00
5:53 am 05:53 Sunny 66 18.9 56 13.3 70 70 Calm 29.96 1015 10 16 0.00 0.00
6:53 am 06:53 Sunny 71 21.7 57 13.9 61 61 Calm 29.97 1015 10 16 0.00 0.00
7:53 am 07:53 Sunny 78 25.6 58 14.4 50 50 Calm 29.97 1015 10 16 0.00 0.00
8:53 am 08:53 Sunny 85 29.4 52 11.1 32 32 NW 6 9 29.96 1014 10 16 0.00 0.00
9:53 am 09:53 Sunny 91 32.8 49 9.4 24 24 NW 6 9 29.95 1014 10 16 0.00 0.00
10:53 am 10:53 Sunny 95 35 49 9.4 21 21 NNE 13 20 29.93 1014 10 16 0.00 0.00
11:53 am 11:53 Sunny 98 36.7 50 10 20 20 Calm 29.93 1014 10 16 0.00 0.00
12:53 pm 12:53 Sunny 99 37.2 46 7.8 16 16 NW 7 11 29.92 1013 10 16 0.00 0.00
1:53 pm 13:53 Sunny 101 38.3 36 2.2 10 10 undefined N/A 29.91 1013 10 16 0.00 0.00
2:53 pm 14:53 Sunny 102 38.9 35 1.7 10 10 VRB 3 6 29.89 1012 10 16 0.00 0.00
3:53 pm 15:53 Sunny 106 41 36 2 9 9 ENE 5 7 29.88 1012 10 16 0.00 0.00
4:53 pm 16:53 Sunny 104 40 35 1.7 9 9 undefined N/A 29.87 1011 10 16 0.00 0.00
5:53 pm 17:53 Sunny 105 40.6 37 2.8 10 10 VRB 3 6 29.85 1011 10 16 0.00 0.00
6:53 pm 18:53 Sunny 103 39.4 40 4.4 11 11 WNW 5 7 29.85 1011 10 16 0.00 0.00
7:53 pm 19:53 Sunny 99 37.2 41 5 14 14 NW 6 9 29.86 1011 10 16 0.00 0.00
8:53 pm 20:53 Clear 93 33.9 43 6.1 18 18 WNW 5 7 29.86 1011 10 16 0.00 0.00
9:53 pm 21:53 Clear 88 31.1 45 7.2 22 22 NW 3 6 29.88 1012 10 16 0.00 0.00
10:53 pm 22:53 Clear 82 27.8 48 8.9 31 31 Calm 29.89 1012 10 16 0.00 0.00
11:53 pm 23:53 Clear 80 26.7 48 8.9 33 33 N 5 7 29.89 1012 10 16 0.00 0.00

Powered by AerisWeather